{"data":{"norad_id":56465,"epoch":"2026-09-20T13:10:01.768512Z","epoch_age_seconds":107775,"freshness":"FRESH","line1":"1 56465U 23064T   26263.54863158  .00000025  00000+0  99003-5 0  9992","line2":"2 56465  69.9999 332.9909 0003582 268.5522  91.5227 14.98331318185429","mean_motion":14.98331318,"eccentricity":0.0003582,"inclination_deg":69.9999,"raan_deg":332.9909,"arg_perigee_deg":268.5522,"mean_anomaly_deg":91.5227,"bstar":9.9003e-6,"rev_number":18542,"period_min":96.10691458563,"perigee_km":569.56225750754,"apogee_km":574.54137277471,"semimajor_km":6950.1888151411,"source":"CELESTRAK","updated_at":"2026-09-21T09:00:33.444488Z"}}